Location: Dumpton Point
(51.3500°N, 1.4433°E)
Time: 15:17:45
(UTC+00:00)

Vanguard 3 - Pass Details

Date: 28 April 2021
Orbit: 507 x 3262 km, 33.4° (Epoch: 16 May)

Event Time Altitude Azimuth Distance (km) Brightness Sun altitude
Rises 21:04:06 0° 208° (SSW) 5,999 11.4 -14.8°
Reaches altitude 10° 21:11:34 10° 186° (S) 4,264 10.4 -15.6°
Enters shadow 21:14:02 12° 173° (S) 3,821 10.1 -15.8°
Maximum altitude 21:15:36 13° 164° (SSE) 3,610 - -16.0°
Drops below altitude 10° 21:18:59 10° 141° (SE) 3,429 - -16.3°
Sets 21:23:28 0° 113° (ESE) 3,862 - -16.7°
